Wind_Speed
16 14 16 16 16 20 21 21 21 23 25 25 24 23 22 23 17 19 22 24 28 31 26 30 23 31 27 30 36 34 35 36
11 15 23 20 18 20 18 16 20 26 29 29 30 31 29 30 28 27 30 36 31 35 29 30 32 40 35 38 38 37 40 35
7 15 18 14 17 22 23 25 29 28 26 27 30 30 30 31 33 36 40 44 45 41 48 44 46 48 51 46 43 40 38 31
15 11 13 16 22 28 27 25 26 26 28 28 28 28 28 28 28 32 36 41 47 51 55 56 55 58 54 49 46 47 50 53
13 16 22 25 24 24 26 27 28 28 29 30 32 33 32 32 36 38 35 33 35 39 44 50 56 57 55 54 53 54 55 59
18 18 18 22 25 26 26 26 26 28 29 30 33 35 35 37 37 34 33 32 34 37 41 44 47 48 52 56 57 59 59 59
16 19 20 24 25 23 22 23 26 27 28 30 34 34 33 32 32 33 34 34 35 36 36 41 44 45 46 48 50 51 52 55
17 20 22 24 22 22 22 24 26 27 27 32 36 33 32 32 33 35 36 38 38 37 38 40 41 44 46 46 49 50 52 53
19 23 24 24 24 23 23 25 28 27 29 32 36 35 33 33 35 36 38 39 38 36 35 35 35 37 39 40 42 43 45 47
22 24 23 23 24 23 24 26 29 29 31 33 37 37 35 35 36 39 41 41 38 35 34 34 34 33 35 35 35 36 36 38
24 22 21 22 24 24 23 27 30 31 33 35 36 38 37 36 36 38 40 40 36 35 35 35 34 33 32 32 32 33 35 34
26 22 20 21 23 24 24 26 30 31 34 36 37 39 36 35 37 40 43 42 37 35 34 33 32 31 29 30 31 31 32 32
26 22 20 20 22 23 23 26 30 33 36 36 40 38 35 36 38 41 42 42 37 34 34 31 30 30 30 31 32 31 30 28
23 21 20 20 22 22 24 28 31 34 35 35 38 37 36 37 38 41 42 42 36 33 32 29 27 27 27 27 29 29 27 27
21 19 20 20 22 23 25 29 32 34 34 35 39 41 39 39 39 40 42 40 34 33 31 27 25 22 22 24 25 25 27 28
18 18 20 21 23 24 24 26 31 33 34 35 40 42 40 38 38 40 40 37 31 31 28 25 21 22 26 26 25 27 26 26
17 19 20 22 23 25 25 25 28 32 37 36 37 41 40 36 38 40 39 36 30 28 26 24 19 23 27 22 22 21 22 22
17 19 21 22 23 26 28 29 31 33 36 35 34 40 41 37 38 38 37 35 29 26 28 25 21 24 24 19 18 21 17 14
18 19 22 23 23 24 27 28 30 32 35 36 33 39 41 37 36 38 36 34 29 24 26 22 22 24 19 16 14 15 12 7
Wind_Direction
316 314 320 313 320 322 323 320 324 324 324 323 320 314 308 307 298 310 290 289 285 271 282 276 276 270 269 283 272 265 264 263
315 325 321 322 322 325 325 315 302 308 308 310 309 305 301 298 293 286 278 274 279 273 270 279 273 276 264 265 272 265 262 260
288 298 309 320 305 304 302 293 297 303 299 292 291 294 293 289 281 272 269 271 275 273 274 271 269 274 275 271 271 264 263 256
268 282 286 288 280 284 288 301 308 302 308 312 310 306 301 293 285 279 274 271 269 268 270 270 271 273 275 271 266 267 271 270
259 262 271 279 291 298 303 311 310 308 312 315 312 312 309 303 302 299 289 277 268 266 263 263 262 264 264 266 267 266 264 268
269 282 284 285 294 300 309 312 307 313 318 316 313 313 309 307 306 303 298 288 280 271 269 267 266 264 263 262 262 264 264 265
281 282 280 290 301 305 312 312 317 318 321 319 324 321 316 313 310 308 306 302 296 290 282 272 269 268 263 262 262 263 261 259
288 294 295 304 311 317 319 324 319 321 323 331 331 325 321 319 317 315 312 308 301 294 286 282 279 276 274 270 267 264 262 259
287 295 305 311 316 321 328 325 321 326 329 329 336 332 327 324 322 319 318 314 307 301 293 287 281 277 275 273 270 268 265 262
287 301 309 313 317 324 331 324 328 330 330 328 333 333 330 327 327 326 323 319 312 306 300 294 289 284 278 276 275 273 270 265
303 310 313 318 320 327 331 324 331 333 332 331 332 335 331 329 326 324 327 325 318 314 310 304 300 295 291 285 281 277 273 268
310 316 320 322 320 328 326 328 333 338 336 334 334 334 330 327 327 331 332 330 321 318 316 309 304 299 294 287 284 280 275 272
309 320 323 323 321 327 327 329 338 340 339 338 335 334 332 332 333 334 334 331 325 323 320 311 305 299 293 289 285 282 277 273
314 322 325 325 322 334 331 335 339 340 341 341 340 335 337 338 336 336 335 332 327 325 323 316 311 302 295 292 290 287 278 272
318 325 325 324 327 340 342 336 338 343 342 340 346 345 342 341 338 336 335 332 329 328 328 323 315 307 305 303 295 293 285 280
324 325 326 329 333 343 344 339 338 342 343 342 344 347 344 341 340 340 338 336 333 331 332 325 318 315 315 308 298 296 290 282
326 326 331 335 338 340 343 347 340 344 346 344 347 349 346 345 344 344 343 342 337 337 340 334 319 311 319 314 308 304 299 284
332 334 334 336 341 343 344 349 347 347 347 346 345 349 350 349 349 350 348 347 342 343 343 333 325 326 326 320 315 319 314 295
338 331 331 337 341 343 343 349 346 345 347 347 348 350 351 352 350 356 354 354 351 344 341 343 339 336 335 327 326 338 334 315
Height
3145 3144 3142 3140 3136 3134 3131 3128 3126 3123 3120 3118 3116 3114 3111 3109 3109 3106 3103 3100 3097 3096 3095 3095 3093 3092 3092 3093 3092 3091 3091 3091
3143 3141 3140 3137 3136 3132 3130 3128 3124 3120 3118 3114 3112 3109 3107 3105 3104 3101 3097 3093 3089 3089 3087 3086 3084 3083 3085 3083 3083 3081 3082 3083
3142 3141 3139 3136 3133 3130 3127 3125 3122 3120 3116 3112 3108 3105 3103 3101 3098 3095 3091 3087 3085 3081 3078 3077 3075 3073 3074 3073 3074 3071 3070 3072
3140 3138 3136 3135 3130 3127 3124 3121 3118 3113 3109 3106 3104 3101 3097 3093 3090 3087 3083 3079 3076 3073 3069 3066 3065 3063 3062 3061 3062 3059 3059 3060
3137 3136 3134 3129 3125 3122 3119 3117 3112 3107 3104 3101 3095 3089 3084 3081 3076 3072 3069 3067 3062 3059 3055 3053 3052 3052 3050 3049 3048 3048 3046 3045
3133 3131 3129 3126 3122 3119 3115 3112 3106 3103 3099 3094 3087 3081 3075 3070 3065 3060 3056 3053 3049 3045 3041 3039 3037 3036 3033 3032 3032 3033 3032 3030
3130 3127 3125 3122 3119 3116 3112 3107 3102 3098 3093 3087 3080 3073 3067 3062 3057 3052 3047 3042 3039 3035 3030 3026 3022 3020 3019 3017 3016 3016 3016 3016
3125 3123 3121 3117 3114 3110 3106 3102 3097 3093 3087 3080 3073 3066 3060 3054 3048 3042 3036 3031 3026 3021 3016 3012 3008 3004 3002 3001 2999 2998 2998 2998
3121 3119 3116 3112 3109 3105 3101 3097 3092 3087 3080 3074 3067 3059 3053 3047 3040 3033 3027 3019 3013 3008 3003 2999 2996 2992 2988 2986 2984 2982 2981 2981
3119 3116 3112 3108 3104 3101 3097 3092 3086 3080 3074 3068 3061 3053 3046 3039 3032 3025 3018 3010 3002 2996 2991 2987 2983 2980 2976 2973 2971 2968 2967 2966
3116 3113 3109 3104 3099 3097 3093 3087 3081 3074 3068 3062 3055 3047 3039 3032 3026 3019 3010 3002 2994 2987 2980 2975 2971 2968 2964 2961 2959 2957 2955 2954
3112 3109 3105 3101 3096 3093 3088 3083 3076 3070 3063 3056 3048 3041 3034 3026 3018 3009 3001 2993 2986 2978 2971 2966 2961 2957 2954 2951 2949 2946 2944 2943
3109 3105 3102 3098 3092 3089 3084 3078 3072 3065 3058 3050 3044 3036 3027 3019 3010 3002 2994 2985 2977 2970 2963 2957 2952 2948 2944 2942 2939 2937 2935 2934
3105 3102 3098 3094 3089 3086 3080 3074 3068 3061 3053 3046 3039 3030 3020 3012 3004 2995 2987 2978 2970 2963 2956 2950 2945 2940 2936 2933 2929 2927 2926 2925
3102 3098 3094 3090 3085 3082 3077 3070 3063 3056 3049 3042 3033 3023 3014 3006 2998 2989 2981 2972 2962 2956 2949 2943 2938 2934 2930 2927 2923 2920 2918 2917
3099 3095 3091 3087 3082 3079 3074 3067 3060 3053 3046 3038 3029 3019 3010 3001 2993 2984 2975 2965 2957 2950 2943 2938 2933 2929 2925 2920 2916 2913 2911 2908
3096 3092 3088 3084 3079 3075 3070 3065 3058 3050 3042 3034 3026 3017 3007 2998 2989 2980 2969 2960 2953 2945 2939 2933 2928 2925 2919 2914 2910 2907 2903 2900
3094 3090 3085 3081 3076 3071 3066 3061 3054 3047 3040 3031 3023 3014 3004 2995 2986 2976 2966 2957 2949 2942 2935 2930 2925 2920 2914 2910 2906 2902 2897 2894
3092 3087 3082 3078 3074 3069 3063 3058 3051 3045 3037 3029 3020 3011 3001 2992 2984 2974 2965 2955 2947 2939 2933 2927 2922 2917 2911 2907 2903 2900 2896 2893